Aérodrome :
LOGIN :

S'inscrire | Disclaimer

   EN    FR    IT 

 










Légende :    VFR   VFR Marginal   IFR   IFR Intensif   IFR Très Intensif
Visi : 
Plafond : 
>= 8 km
>= 3000ft
5 à 8 km
1000 à 3000 ft
1500m à 5 km
500 à 1000 ft
800 à 1500m
200 à 500 ft
< 800m
< 200 ft
Symboles :   Orages  Brouillard  Fortes neiges  Fortes précipitations  Vent > 20 kt
SIGMETs :   Divers  Orages  Givrage  Turbulence  Onde Orograph.  Cendres Volcan.







- Altitude de l'aérodrome : 1568 ft


ETSB - Büchel AB

DERNIER METAR :
  • 261720Z VRB03KT 9999 BKN040 OVC100 04/M00 Q1012 BLU BLU

METARs EXPIRÉS :
  • 261620Z 12007KT 9999 SCT014 BKN040 OVC110 05/M02 Q1012 BLU BLU
  • 261520Z 32007KT 9999 BKN050 BKN110 06/M03 Q1011 BLU BLU

TAF TAF ETSB
Valide du 26 à 17h jusqu'au 27 à 02h UTC


261632Z 2617/2702 VRB03KT 9999 NSW FEW010 BKN050 BKN100
PROB30 2617/2619 34010KT 4000 SHRA SCT010 BKN020CB BY ETGL
Pas de NOTAMs connus pour ce terrain.



MET'MAP, la Météo Aéronautique d'un coup d'oeil ! - Copyright ORBIFLY Décembre 2007 - Disclaimer

ORBIFLY MET'MAP TEAM :

Programmation & Développement : Alexandra Zaïnal
Conception & Développement : Baudouin d'Aumeries
Co-Programmation & Développement : Marc-Olivier Méhu
Soutien technique & logistique : Manuel Goepfert

Contact : metmap@orbifly.com




SOURCES & CREDITS :

   NOAA